Time,TemperatureF,DewpointF,PressureIn,WindDirection,WindDirectionDegrees,WindSpeedMPH,WindSpeedGustMPH,Humidity,HourlyPrecipIn,Conditions,Clouds,dailyrainin,SoftwareType,DateUTC
2013-02-19 00:02:00,21.9,2.9,23.39,SSW,200,0.0,0.0,43,0.00,,---,0.00,VWS V14.00,2013-02-19 07:02:00,
2013-02-19 00:07:00,21.9,2.9,23.39,SSW,200,0.0,0.0,43,0.00,,---,0.00,VWS V14.00,2013-02-19 07:07:00,
2013-02-19 00:12:00,21.9,2.9,23.39,SSW,200,0.0,0.0,43,0.00,,---,0.00,VWS V14.00,2013-02-19 07:12:00,
2013-02-19 00:17:00,21.7,2.7,23.39,SSW,200,0.0,0.0,43,0.00,,---,0.00,VWS V14.00,2013-02-19 07:17:00,
2013-02-19 00:22:00,21.6,2.5,23.39,SSW,200,0.0,0.0,43,0.00,,---,0.00,VWS V14.00,2013-02-19 07:22:00,
2013-02-19 00:27:00,21.6,2.5,23.39,SSW,200,0.0,0.0,43,0.00,,---,0.00,VWS V14.00,2013-02-19 07:27:00,
2013-02-19 00:33:00,21.6,2.5,23.39,SSW,200,0.0,0.0,43,0.00,,---,0.00,VWS V14.00,2013-02-19 07:33:00,
2013-02-19 00:38:00,21.4,2.4,23.39,SSW,200,0.0,0.0,43,0.00,,---,0.00,VWS V14.00,2013-02-19 07:38:00,
2013-02-19 00:43:00,21.4,2.4,23.36,SSW,200,0.0,0.0,43,0.00,,---,0.00,VWS V14.00,2013-02-19 07:43:00,
2013-02-19 00:48:00,21.2,2.2,23.36,SSW,200,0.0,0.0,43,0.00,,---,0.00,VWS V14.00,2013-02-19 07:48:00,
2013-02-19 00:53:00,21.2,2.2,23.36,SSW,200,0.0,0.0,43,0.00,,---,0.00,VWS V14.00,2013-02-19 07:53:00,
2013-02-19 00:58:00,21.2,2.2,23.36,SSW,200,0.0,0.0,43,0.00,,---,0.00,VWS V14.00,2013-02-19 07:58:00,
2013-02-19 01:03:00,21.2,2.2,23.36,SSW,200,0.0,0.0,43,0.00,,---,0.00,VWS V14.00,2013-02-19 08:03:00,
2013-02-19 01:08:00,21.2,2.2,23.36,SSW,200,0.0,0.0,43,0.00,,---,0.00,VWS V14.00,2013-02-19 08:08:00,
2013-02-19 01:13:00,21.0,2.0,23.36,SSW,200,0.0,0.0,43,0.00,,---,0.00,VWS V14.00,2013-02-19 08:13:00,
2013-02-19 01:18:00,20.8,1.9,23.36,SSW,200,0.0,0.0,43,0.00,,---,0.00,VWS V14.00,2013-02-19 08:18:00,
2013-02-19 01:23:00,20.7,1.7,23.36,SSW,200,0.0,0.0,43,0.00,,---,0.00,VWS V14.00,2013-02-19 08:23:00,
2013-02-19 01:29:00,20.5,1.5,23.36,SSW,200,0.0,0.0,43,0.00,,---,0.00,VWS V14.00,2013-02-19 08:29:00,
2013-02-19 01:34:00,20.3,1.4,23.36,SSW,200,0.0,0.0,43,0.00,,---,0.00,VWS V14.00,2013-02-19 08:34:00,
2013-02-19 01:39:00,20.1,1.2,23.36,SSW,200,0.0,0.0,43,0.00,,---,0.00,VWS V14.00,2013-02-19 08:39:00,
2013-02-19 01:44:00,19.9,1.1,23.36,SSW,200,0.0,0.0,43,0.00,,---,0.00,VWS V14.00,2013-02-19 08:44:00,
2013-02-19 01:49:00,19.8,0.9,23.36,SSW,200,0.0,0.0,43,0.00,,---,0.00,VWS V14.00,2013-02-19 08:49:00,
2013-02-19 01:54:00,19.6,0.7,23.36,SSW,200,0.0,0.0,43,0.00,,---,0.00,VWS V14.00,2013-02-19 08:54:00,
2013-02-19 01:59:00,19.4,1.1,23.36,SSW,200,0.0,0.0,44,0.00,,---,0.00,VWS V14.00,2013-02-19 08:59:00,
2013-02-19 02:04:00,19.4,1.1,23.36,SSW,200,0.0,0.0,44,0.00,,---,0.00,VWS V14.00,2013-02-19 09:04:00,
2013-02-19 02:09:00,19.4,1.1,23.36,SSW,200,0.0,0.0,44,0.00,,---,0.00,VWS V14.00,2013-02-19 09:09:00,
2013-02-19 02:14:00,19.4,1.1,23.36,SSW,200,0.0,0.0,44,0.00,,---,0.00,VWS V14.00,2013-02-19 09:14:00,
2013-02-19 02:19:00,19.2,0.9,23.36,SSW,200,0.0,0.0,44,0.00,,---,0.00,VWS V14.00,2013-02-19 09:19:00,
2013-02-19 02:24:00,19.2,0.9,23.36,SSW,200,0.0,0.0,44,0.00,,---,0.00,VWS V14.00,2013-02-19 09:24:00,
2013-02-19 02:29:00,19.2,0.9,23.36,SSW,200,0.0,0.0,44,0.00,,---,0.00,VWS V14.00,2013-02-19 09:29:00,
2013-02-19 02:35:00,19.0,0.7,23.36,SSW,200,0.0,0.0,44,0.00,,---,0.00,VWS V14.00,2013-02-19 09:35:00,
2013-02-19 02:40:00,19.2,0.9,23.36,SSW,200,0.0,0.0,44,0.00,,---,0.00,VWS V14.00,2013-02-19 09:40:00,
2013-02-19 02:45:00,19.0,0.7,23.33,SSW,200,0.0,0.0,44,0.00,,---,0.00,VWS V14.00,2013-02-19 09:45:00,
2013-02-19 02:50:00,19.0,0.7,23.33,SSW,200,0.0,0.0,44,0.00,,---,0.00,VWS V14.00,2013-02-19 09:50:00,
2013-02-19 02:55:00,18.7,0.4,23.33,SSW,200,0.0,0.0,44,0.00,,---,0.00,VWS V14.00,2013-02-19 09:55:00,
2013-02-19 03:00:00,18.5,0.2,23.33,SSW,200,0.0,0.0,44,0.00,,---,0.00,VWS V14.00,2013-02-19 10:00:00,
2013-02-19 03:05:00,18.3,0.1,23.33,SSW,200,0.0,0.0,44,0.00,,---,0.00,VWS V14.00,2013-02-19 10:05:00,
2013-02-19 03:10:00,18.3,0.1,23.33,SSW,200,0.0,0.0,44,0.00,,---,0.00,VWS V14.00,2013-02-19 10:10:00,
2013-02-19 03:15:00,18.1,-0.1,23.33,SSW,200,0.0,0.0,44,0.00,,---,0.00,VWS V14.00,2013-02-19 10:15:00,
2013-02-19 03:20:00,18.0,-0.3,23.33,SSW,200,0.0,0.0,44,0.00,,---,0.00,VWS V14.00,2013-02-19 10:20:00,
2013-02-19 03:25:00,18.0,-0.3,23.33,SSW,200,0.0,0.0,44,0.00,,---,0.00,VWS V14.00,2013-02-19 10:25:00,
2013-02-19 03:30:00,18.0,-0.3,23.33,SSW,200,0.0,0.0,44,0.00,,---,0.00,VWS V14.00,2013-02-19 10:30:00,
2013-02-19 03:35:00,18.0,-0.3,23.33,SSW,200,0.0,0.0,44,0.00,,---,0.00,VWS V14.00,2013-02-19 10:35:00,
2013-02-19 03:40:00,18.0,-0.3,23.33,SSW,200,0.0,0.0,44,0.00,,---,0.00,VWS V14.00,2013-02-19 10:40:00,
2013-02-19 03:45:00,17.8,-0.4,23.33,SSW,200,0.0,0.0,44,0.00,,---,0.00,VWS V14.00,2013-02-19 10:45:00,
2013-02-19 03:50:00,17.8,-0.4,23.33,SSW,200,0.0,0.0,44,0.00,,---,0.00,VWS V14.00,2013-02-19 10:50:00,
2013-02-19 03:56:00,17.8,-0.4,23.33,SSW,200,0.0,0.0,44,0.00,,---,0.00,VWS V14.00,2013-02-19 10:56:00,
2013-02-19 04:01:00,17.8,-0.4,23.33,SSW,200,0.0,0.0,44,0.00,,---,0.00,VWS V14.00,2013-02-19 11:01:00,
2013-02-19 04:06:00,17.8,-0.4,23.33,SSW,200,0.0,0.0,44,0.00,,---,0.00,VWS V14.00,2013-02-19 11:06:00,
2013-02-19 04:11:00,17.8,-0.4,23.33,SSW,200,0.0,0.0,44,0.00,,---,0.00,VWS V14.00,2013-02-19 11:11:00,
2013-02-19 04:16:00,18.0,-0.3,23.33,SSW,200,0.0,0.0,44,0.00,,---,0.00,VWS V14.00,2013-02-19 11:16:00,
2013-02-19 04:21:00,18.1,-0.1,23.33,SSW,200,0.0,0.0,44,0.00,,---,0.00,VWS V14.00,2013-02-19 11:21:00,
2013-02-19 04:26:00,18.0,-0.3,23.30,SSW,200,0.0,0.0,44,0.00,,---,0.00,VWS V14.00,2013-02-19 11:26:00,
2013-02-19 04:32:00,17.8,-0.4,23.30,SSW,200,0.0,0.0,44,0.00,,---,0.00,VWS V14.00,2013-02-19 11:32:00,
2013-02-19 04:37:00,17.8,-0.4,23.30,SSW,200,0.0,0.0,44,0.00,,---,0.00,VWS V14.00,2013-02-19 11:37:00,
2013-02-19 04:42:00,17.6,-0.6,23.30,SSW,200,0.0,0.0,44,0.00,,---,0.00,VWS V14.00,2013-02-19 11:42:00,
2013-02-19 04:47:00,17.8,-0.4,23.30,SSW,200,0.0,0.0,44,0.00,,---,0.00,VWS V14.00,2013-02-19 11:47:00,
2013-02-19 04:52:00,18.1,-0.1,23.30,SSW,200,0.0,0.0,44,0.00,,---,0.00,VWS V14.00,2013-02-19 11:52:00,
2013-02-19 04:57:00,18.3,0.1,23.30,SSW,200,0.0,0.0,44,0.00,,---,0.00,VWS V14.00,2013-02-19 11:57:00,
2013-02-19 05:02:00,18.5,0.2,23.30,SSW,200,0.0,0.0,44,0.00,,---,0.00,VWS V14.00,2013-02-19 12:02:00,
2013-02-19 05:07:00,18.5,0.2,23.30,SSW,200,0.0,0.0,44,0.00,,---,0.00,VWS V14.00,2013-02-19 12:07:00,
2013-02-19 05:12:00,18.3,0.1,23.30,SSW,200,0.0,0.0,44,0.00,,---,0.00,VWS V14.00,2013-02-19 12:12:00,
2013-02-19 05:17:00,18.1,-0.1,23.30,SSW,200,0.0,0.0,44,0.00,,---,0.00,VWS V14.00,2013-02-19 12:17:00,
2013-02-19 05:22:00,18.1,-0.1,23.30,SSW,200,0.0,0.0,44,0.00,,---,0.00,VWS V14.00,2013-02-19 12:22:00,
2013-02-19 05:27:00,18.1,-0.1,23.30,SSW,200,0.0,0.0,44,0.00,,---,0.00,VWS V14.00,2013-02-19 12:27:00,
2013-02-19 05:32:00,18.1,-0.1,23.30,SSW,200,0.0,0.0,44,0.00,,---,0.00,VWS V14.00,2013-02-19 12:32:00,
2013-02-19 05:37:00,18.1,-0.1,23.30,SSW,200,0.0,0.0,44,0.00,,---,0.00,VWS V14.00,2013-02-19 12:37:00,
2013-02-19 05:42:00,18.3,0.1,23.30,SSW,200,0.0,0.0,44,0.00,,---,0.00,VWS V14.00,2013-02-19 12:42:00,
2013-02-19 05:48:00,18.1,-0.1,23.30,SSW,200,0.0,0.0,44,0.00,,---,0.00,VWS V14.00,2013-02-19 12:48:00,
2013-02-19 05:53:00,18.1,-0.1,23.30,SSW,200,0.0,0.0,44,0.00,,---,0.00,VWS V14.00,2013-02-19 12:53:00,
2013-02-19 05:58:00,18.3,0.1,23.30,SSW,200,0.0,0.0,44,0.00,,---,0.00,VWS V14.00,2013-02-19 12:58:00,
2013-02-19 06:03:00,18.3,0.1,23.30,SSW,200,0.0,0.0,44,0.00,,---,0.00,VWS V14.00,2013-02-19 13:03:00,
2013-02-19 06:08:00,18.3,0.1,23.30,SSW,200,0.0,0.0,44,0.00,,---,0.00,VWS V14.00,2013-02-19 13:08:00,
2013-02-19 06:13:00,18.3,0.1,23.30,SSW,200,0.0,0.0,44,0.00,,---,0.00,VWS V14.00,2013-02-19 13:13:00,
2013-02-19 06:18:00,18.1,-0.1,23.30,SSW,200,0.0,0.0,44,0.00,,---,0.00,VWS V14.00,2013-02-19 13:18:00,
2013-02-19 06:23:00,18.1,-0.1,23.30,SSW,200,0.0,0.0,44,0.00,,---,0.00,VWS V14.00,2013-02-19 13:23:00,
2013-02-19 06:28:00,17.8,-0.4,23.30,SSW,200,0.0,0.0,44,0.00,,---,0.00,VWS V14.00,2013-02-19 13:28:00,
2013-02-19 06:33:00,17.6,-0.1,23.30,SSW,200,0.0,0.0,45,0.00,,---,0.00,VWS V14.00,2013-02-19 13:33:00,
2013-02-19 06:38:00,17.4,-0.3,23.30,SSW,200,0.0,0.0,45,0.00,,---,0.00,VWS V14.00,2013-02-19 13:38:00,
2013-02-19 06:43:00,17.1,-0.6,23.30,SSW,200,0.0,0.0,45,0.00,,---,0.00,VWS V14.00,2013-02-19 13:43:00,
2013-02-19 06:48:00,17.1,-0.6,23.30,SSW,200,0.0,0.0,45,0.00,,---,0.00,VWS V14.00,2013-02-19 13:48:00,
2013-02-19 06:53:00,16.9,-0.8,23.30,SSW,200,0.0,0.0,45,0.00,,---,0.00,VWS V14.00,2013-02-19 13:53:00,
2013-02-19 06:58:00,16.7,-0.9,23.30,SSW,200,0.0,0.0,45,0.00,,---,0.00,VWS V14.00,2013-02-19 13:58:00,
2013-02-19 07:03:00,16.7,-0.9,23.30,SSW,200,0.0,0.0,45,0.00,,---,0.00,VWS V14.00,2013-02-19 14:03:00,
2013-02-19 07:08:00,16.7,-0.9,23.30,SSW,200,0.0,0.0,45,0.00,,---,0.00,VWS V14.00,2013-02-19 14:08:00,
2013-02-19 07:14:00,16.5,-1.1,23.30,SSW,200,0.0,0.0,45,0.00,,---,0.00,VWS V14.00,2013-02-19 14:14:00,
2013-02-19 07:19:00,16.5,-1.1,23.30,SSW,200,0.0,0.0,45,0.00,,---,0.00,VWS V14.00,2013-02-19 14:19:00,
2013-02-19 07:24:00,16.5,-1.1,23.30,SSW,200,0.0,0.0,45,0.00,,---,0.00,VWS V14.00,2013-02-19 14:24:00,
2013-02-19 07:29:00,16.7,-0.9,23.30,SSW,200,0.0,0.0,45,0.00,,---,0.00,VWS V14.00,2013-02-19 14:29:00,
2013-02-19 07:34:00,16.9,-0.8,23.30,SSW,200,0.0,0.0,45,0.00,,---,0.00,VWS V14.00,2013-02-19 14:34:00,
2013-02-19 07:39:00,16.9,-0.8,23.30,SSW,200,0.0,0.0,45,0.00,,---,0.00,VWS V14.00,2013-02-19 14:39:00,
2013-02-19 07:44:00,17.2,-0.4,23.30,SSW,200,0.0,0.0,45,0.00,,---,0.00,VWS V14.00,2013-02-19 14:44:00,
2013-02-19 07:49:00,17.6,-0.1,23.30,SSW,200,0.0,0.0,45,0.00,,---,0.00,VWS V14.00,2013-02-19 14:49:00,
2013-02-19 07:54:00,18.1,0.4,23.30,SSW,200,0.0,0.0,45,0.00,,---,0.00,VWS V14.00,2013-02-19 14:54:00,
2013-02-19 07:59:00,18.5,0.7,23.30,SSW,200,0.0,0.0,45,0.00,,---,0.00,VWS V14.00,2013-02-19 14:59:00,
2013-02-19 08:04:00,19.0,1.2,23.30,SSW,200,0.0,0.0,45,0.00,,---,0.00,VWS V14.00,2013-02-19 15:04:00,
2013-02-19 08:09:00,19.4,1.5,23.30,SSW,200,0.0,0.0,45,0.00,,---,0.00,VWS V14.00,2013-02-19 15:09:00,
2013-02-19 08:14:00,20.1,2.2,23.30,SSW,200,0.0,0.0,45,0.00,,---,0.00,VWS V14.00,2013-02-19 15:14:00,
2013-02-19 08:19:00,20.7,2.7,23.30,SSW,200,0.0,0.0,45,0.00,,---,0.00,VWS V14.00,2013-02-19 15:19:00,
2013-02-19 08:24:00,21.2,3.2,23.30,SSW,200,0.0,0.0,45,0.00,,---,0.00,VWS V14.00,2013-02-19 15:24:00,
2013-02-19 08:29:00,21.9,3.4,23.30,SSW,200,0.0,0.0,44,0.00,,---,0.00,VWS V14.00,2013-02-19 15:29:00,
2013-02-19 08:34:00,22.6,4.0,23.30,SSW,200,0.0,0.0,44,0.00,,---,0.00,VWS V14.00,2013-02-19 15:34:00,
2013-02-19 08:39:00,23.5,4.8,23.30,SSW,200,0.0,0.0,44,0.00,,---,0.00,VWS V14.00,2013-02-19 15:39:00,
2013-02-19 08:44:00,24.4,5.7,23.30,SSW,200,0.0,0.0,44,0.00,,---,0.00,VWS V14.00,2013-02-19 15:44:00,
2013-02-19 08:49:00,25.3,6.0,23.30,SSW,212,0.0,0.0,43,0.00,,---,0.00,VWS V14.00,2013-02-19 15:49:00,
2013-02-19 08:54:00,26.6,7.1,23.30,North,353,3.1,3.1,43,0.00,,---,0.00,VWS V14.00,2013-02-19 15:54:00,
2013-02-19 08:59:00,27.7,7.6,23.27,NNW,343,0.0,2.7,42,0.00,,---,0.00,VWS V14.00,2013-02-19 15:59:00,
2013-02-19 09:04:00,28.4,7.7,23.27,North,350,0.0,0.0,41,0.00,,---,0.00,VWS V14.00,2013-02-19 16:04:00,
2013-02-19 09:09:00,28.8,8.0,23.27,North,353,0.0,0.0,41,0.00,,---,0.00,VWS V14.00,2013-02-19 16:09:00,
2013-02-19 09:15:00,29.1,8.4,23.27,North,353,0.0,0.0,41,0.00,,---,0.00,VWS V14.00,2013-02-19 16:15:00,
2013-02-19 09:20:00,29.7,8.9,23.27,North,353,0.0,0.0,41,0.00,,---,0.00,VWS V14.00,2013-02-19 16:20:00,
2013-02-19 09:25:00,30.6,9.7,23.27,NW,324,2.7,3.6,41,0.00,,---,0.00,VWS V14.00,2013-02-19 16:25:00,
2013-02-19 09:30:00,31.6,10.6,23.27,NW,324,0.0,0.0,41,0.00,,---,0.00,VWS V14.00,2013-02-19 16:30:00,
2013-02-19 09:35:00,32.7,11.6,23.27,NNW,339,2.7,4.0,41,0.00,,---,0.00,VWS V14.00,2013-02-19 16:35:00,
2013-02-19 09:40:00,34.0,12.2,23.27,WNW,301,2.7,3.6,40,0.00,,---,0.00,VWS V14.00,2013-02-19 16:40:00,
2013-02-19 09:45:00,35.6,13.7,23.27,South,181,0.0,0.0,40,0.00,,---,0.00,VWS V14.00,2013-02-19 16:45:00,
2013-02-19 09:50:00,37.2,15.1,23.27,WSW,257,2.2,2.2,40,0.00,,---,0.00,VWS V14.00,2013-02-19 16:50:00,
2013-02-19 09:55:00,38.5,15.7,23.27,SW,221,0.0,0.0,39,0.00,,---,0.00,VWS V14.00,2013-02-19 16:55:00,
2013-02-19 10:00:00,39.2,16.3,23.27,SSE,149,3.1,5.4,39,0.00,,---,0.00,VWS V14.00,2013-02-19 17:00:00,
2013-02-19 10:05:00,39.4,16.5,23.27,WSW,247,4.0,4.0,39,0.00,,---,0.00,VWS V14.00,2013-02-19 17:05:00,
2013-02-19 10:10:00,39.4,16.5,23.27,WSW,258,4.0,5.4,39,0.00,,---,0.00,VWS V14.00,2013-02-19 17:10:00,
2013-02-19 10:15:00,39.7,16.8,23.27,WNW,290,2.7,5.4,39,0.00,,---,0.00,VWS V14.00,2013-02-19 17:15:00,
2013-02-19 10:20:00,40.6,17.6,23.27,SW,236,2.7,3.6,39,0.00,,---,0.00,VWS V14.00,2013-02-19 17:20:00,
2013-02-19 10:25:00,41.2,18.1,23.27,WSW,252,2.7,4.0,39,0.00,,---,0.00,VWS V14.00,2013-02-19 17:25:00,
2013-02-19 10:30:00,41.7,18.6,23.27,NW,322,5.8,5.8,39,0.00,,---,0.00,VWS V14.00,2013-02-19 17:30:00,
2013-02-19 10:35:00,42.4,19.2,23.27,WSW,257,5.4,10.1,39,0.00,,---,0.00,VWS V14.00,2013-02-19 17:35:00,
2013-02-19 10:40:00,42.8,19.0,23.27,South,190,4.0,6.3,38,0.00,,---,0.00,VWS V14.00,2013-02-19 17:40:00,
2013-02-19 10:45:00,43.7,19.8,23.27,East,95,3.1,5.4,38,0.00,,---,0.00,VWS V14.00,2013-02-19 17:45:00,
2013-02-19 10:50:00,45.5,21.4,23.27,South,177,8.1,8.1,38,0.00,,---,0.00,VWS V14.00,2013-02-19 17:50:00,
2013-02-19 10:55:00,46.9,22.0,23.27,SSW,196,3.6,3.6,37,0.00,,---,0.00,VWS V14.00,2013-02-19 17:55:00,
2013-02-19 11:00:00,48.0,23.0,23.24,SSE,166,8.7,8.7,37,0.00,,---,0.00,VWS V14.00,2013-02-19 18:00:00,
2013-02-19 11:05:00,48.7,23.6,23.24,SW,228,5.8,11.9,37,0.00,,---,0.00,VWS V14.00,2013-02-19 18:05:00,
2013-02-19 11:11:00,49.6,24.5,23.24,West,272,3.6,6.3,37,0.00,,---,0.00,VWS V14.00,2013-02-19 18:11:00,
2013-02-19 11:16:00,49.3,24.1,23.24,SW,222,5.8,5.8,37,0.00,,---,0.00,VWS V14.00,2013-02-19 18:16:00,
2013-02-19 11:21:00,49.3,24.1,23.24,SSE,158,4.9,10.1,37,0.00,,---,0.00,VWS V14.00,2013-02-19 18:21:00,
2013-02-19 11:26:00,50.2,24.9,23.24,SE,125,2.7,2.7,37,0.00,,---,0.00,VWS V14.00,2013-02-19 18:26:00,
2013-02-19 11:31:00,50.7,25.4,23.24,SW,222,4.0,8.3,37,0.00,,---,0.00,VWS V14.00,2013-02-19 18:31:00,
2013-02-19 11:36:00,50.4,25.1,23.24,SSE,159,3.6,3.6,37,0.00,,---,0.00,VWS V14.00,2013-02-19 18:36:00,
2013-02-19 11:41:00,49.8,24.6,23.24,SW,221,4.9,4.9,37,0.00,,---,0.00,VWS V14.00,2013-02-19 18:41:00,
2013-02-19 11:46:00,48.9,23.8,23.24,WSW,248,5.8,5.8,37,0.00,,---,0.00,VWS V14.00,2013-02-19 18:46:00,
2013-02-19 11:51:00,48.6,23.5,23.24,WSW,239,4.9,4.9,37,0.00,,---,0.00,VWS V14.00,2013-02-19 18:51:00,
2013-02-19 11:56:00,48.4,23.3,23.24,SW,225,4.5,5.8,37,0.00,,---,0.00,VWS V14.00,2013-02-19 18:56:00,
2013-02-19 12:01:00,48.7,23.6,23.24,WSW,245,6.3,6.3,37,0.00,,---,0.00,VWS V14.00,2013-02-19 19:01:00,
2013-02-19 12:06:00,48.6,23.5,23.24,SW,231,5.4,8.1,37,0.00,,---,0.00,VWS V14.00,2013-02-19 19:06:00,
2013-02-19 12:11:00,48.6,23.5,23.24,SSW,197,4.9,5.8,37,0.00,,---,0.00,VWS V14.00,2013-02-19 19:11:00,
2013-02-19 12:16:00,48.2,23.2,23.24,SSW,202,6.3,6.7,37,0.00,,---,0.00,VWS V14.00,2013-02-19 19:16:00,
2013-02-19 12:21:00,49.5,24.3,23.24,WSW,250,5.8,5.8,37,0.00,,---,0.00,VWS V14.00,2013-02-19 19:21:00,
2013-02-19 12:26:00,50.2,24.9,23.21,South,191,3.1,7.6,37,0.00,,---,0.00,VWS V14.00,2013-02-19 19:26:00,
2013-02-19 12:31:00,50.7,25.4,23.21,WSW,246,5.8,7.2,37,0.00,,---,0.00,VWS V14.00,2013-02-19 19:31:00,
2013-02-19 12:36:00,50.7,25.4,23.21,WSW,238,3.6,5.4,37,0.00,,---,0.00,VWS V14.00,2013-02-19 19:36:00,
2013-02-19 12:42:00,51.1,25.7,23.21,SW,236,4.0,6.7,37,0.00,,---,0.00,VWS V14.00,2013-02-19 19:42:00,
2013-02-19 12:47:00,52.2,26.0,23.21,SSW,204,3.6,8.3,36,0.00,,---,0.00,VWS V14.00,2013-02-19 19:47:00,
2013-02-19 12:52:00,53.1,26.8,23.21,South,175,3.1,11.4,36,0.00,,---,0.00,VWS V14.00,2013-02-19 19:52:00,
2013-02-19 12:57:00,53.6,27.3,23.21,SSW,202,0.0,0.0,36,0.00,,---,0.00,VWS V14.00,2013-02-19 19:57:00,
2013-02-19 13:02:00,53.8,27.5,23.21,South,190,7.6,8.7,36,0.00,,---,0.00,VWS V14.00,2013-02-19 20:02:00,
2013-02-19 13:07:00,53.2,27.0,23.21,West,270,6.3,6.3,36,0.00,,---,0.00,VWS V14.00,2013-02-19 20:07:00,
2013-02-19 13:12:00,53.1,26.8,23.21,SSE,153,3.1,3.6,36,0.00,,---,0.00,VWS V14.00,2013-02-19 20:12:00,
2013-02-19 13:17:00,53.4,27.1,23.21,SW,219,4.0,4.0,36,0.00,,---,0.00,VWS V14.00,2013-02-19 20:17:00,
2013-02-19 13:22:00,53.4,27.1,23.21,SSE,160,8.1,8.1,36,0.00,,---,0.00,VWS V14.00,2013-02-19 20:22:00,
2013-02-19 13:27:00,53.2,27.0,23.18,South,189,5.4,8.1,36,0.00,,---,0.00,VWS V14.00,2013-02-19 20:27:00,
2013-02-19 13:32:00,52.3,26.2,23.18,SW,216,2.7,3.6,36,0.00,,---,0.00,VWS V14.00,2013-02-19 20:32:00,
2013-02-19 13:37:00,51.8,25.7,23.18,SSW,213,5.4,5.4,36,0.00,,---,0.00,VWS V14.00,2013-02-19 20:37:00,
2013-02-19 13:42:00,50.2,24.9,23.18,SSW,202,2.7,6.3,37,0.00,,---,0.00,VWS V14.00,2013-02-19 20:42:00,
2013-02-19 13:47:00,49.5,24.3,23.18,SW,215,5.8,5.8,37,0.00,,---,0.00,VWS V14.00,2013-02-19 20:47:00,
2013-02-19 13:53:00,48.9,23.8,23.18,SW,227,3.6,7.2,37,0.00,,---,0.00,VWS V14.00,2013-02-19 20:53:00,
2013-02-19 13:58:00,48.4,23.3,23.18,SSE,163,6.3,6.3,37,0.00,,---,0.00,VWS V14.00,2013-02-19 20:58:00,
2013-02-19 14:03:00,47.8,22.9,23.18,South,184,3.1,4.0,37,0.00,,---,0.00,VWS V14.00,2013-02-19 21:03:00,
2013-02-19 14:08:00,47.3,22.4,23.18,South,190,4.0,7.2,37,0.00,,---,0.00,VWS V14.00,2013-02-19 21:08:00,
2013-02-19 14:13:00,47.1,22.2,23.18,WSW,257,8.7,8.7,37,0.00,,---,0.00,VWS V14.00,2013-02-19 21:13:00,
2013-02-19 14:18:00,46.6,21.7,23.18,South,191,4.0,7.6,37,0.00,,---,0.00,VWS V14.00,2013-02-19 21:18:00,
2013-02-19 14:23:00,46.2,22.0,23.18,SSW,203,3.6,4.9,38,0.00,,---,0.00,VWS V14.00,2013-02-19 21:23:00,
2013-02-19 14:28:00,46.0,21.9,23.18,West,277,2.7,2.7,38,0.00,,---,0.00,VWS V14.00,2013-02-19 21:28:00,
2013-02-19 14:33:00,46.0,21.9,23.18,South,178,5.8,5.8,38,0.00,,---,0.00,VWS V14.00,2013-02-19 21:33:00,
2013-02-19 14:38:00,45.7,21.5,23.18,ESE,112,2.7,7.6,38,0.00,,---,0.00,VWS V14.00,2013-02-19 21:38:00,
2013-02-19 14:43:00,45.1,21.1,23.18,WSW,248,5.8,7.6,38,0.00,,---,0.00,VWS V14.00,2013-02-19 21:43:00,
2013-02-19 14:48:00,45.1,21.1,23.18,SSW,192,2.7,3.6,38,0.00,,---,0.00,VWS V14.00,2013-02-19 21:48:00,
2013-02-19 14:53:00,45.1,21.1,23.18,SSW,209,4.9,5.8,38,0.00,,---,0.00,VWS V14.00,2013-02-19 21:53:00,
2013-02-19 14:59:00,45.7,21.5,23.15,SW,225,4.9,8.1,38,0.00,,---,0.00,VWS V14.00,2013-02-19 21:59:00,
2013-02-19 15:04:00,45.9,21.7,23.15,SW,231,4.9,5.4,38,0.00,,---,0.00,VWS V14.00,2013-02-19 22:04:00,
2013-02-19 15:09:00,45.5,21.4,23.15,South,191,8.1,8.1,38,0.00,,---,0.00,VWS V14.00,2013-02-19 22:09:00,
2013-02-19 15:14:00,45.3,21.2,23.15,SSW,199,4.0,5.8,38,0.00,,---,0.00,VWS V14.00,2013-02-19 22:14:00,
2013-02-19 15:19:00,45.3,21.2,23.15,SSW,200,4.9,7.2,38,0.00,,---,0.00,VWS V14.00,2013-02-19 22:19:00,
2013-02-19 15:24:00,45.3,21.2,23.15,SE,140,15.0,15.0,38,0.00,,---,0.00,VWS V14.00,2013-02-19 22:24:00,
2013-02-19 15:29:00,45.0,20.9,23.15,South,179,7.6,7.6,38,0.00,,---,0.00,VWS V14.00,2013-02-19 22:29:00,
2013-02-19 15:34:00,44.8,20.7,23.15,South,178,11.4,11.4,38,0.00,,---,0.00,VWS V14.00,2013-02-19 22:34:00,
2013-02-19 15:39:00,45.0,20.9,23.15,South,181,7.2,7.6,38,0.00,,---,0.00,VWS V14.00,2013-02-19 22:39:00,
2013-02-19 15:44:00,45.0,20.9,23.15,South,180,7.6,8.7,38,0.00,,---,0.00,VWS V14.00,2013-02-19 22:44:00,
2013-02-19 15:49:00,44.8,20.7,23.15,South,188,4.0,5.8,38,0.00,,---,0.00,VWS V14.00,2013-02-19 22:49:00,
2013-02-19 15:54:00,44.8,20.7,23.15,South,185,2.7,4.0,38,0.00,,---,0.00,VWS V14.00,2013-02-19 22:54:00,
2013-02-19 15:59:00,44.8,20.7,23.15,SSW,202,4.0,8.7,38,0.00,,---,0.00,VWS V14.00,2013-02-19 22:59:00,
2013-02-19 16:04:00,44.2,20.3,23.15,South,179,5.4,6.3,38,0.00,,---,0.00,VWS V14.00,2013-02-19 23:04:00,
2013-02-19 16:09:00,43.9,19.9,23.15,SW,225,8.3,8.3,38,0.00,,---,0.00,VWS V14.00,2013-02-19 23:09:00,
2013-02-19 16:14:00,43.7,19.8,23.15,SW,236,5.8,6.3,38,0.00,,---,0.00,VWS V14.00,2013-02-19 23:14:00,
2013-02-19 16:19:00,43.7,19.8,23.15,SW,236,8.3,8.7,38,0.00,,---,0.00,VWS V14.00,2013-02-19 23:19:00,
2013-02-19 16:25:00,43.5,19.6,23.15,SSE,157,4.9,4.9,38,0.00,,---,0.00,VWS V14.00,2013-02-19 23:25:00,
2013-02-19 16:30:00,43.5,19.6,23.15,SSW,208,4.9,6.3,38,0.00,,---,0.00,VWS V14.00,2013-02-19 23:30:00,
2013-02-19 16:35:00,44.2,20.3,23.15,SW,230,3.1,9.6,38,0.00,,---,0.00,VWS V14.00,2013-02-19 23:35:00,
2013-02-19 16:40:00,45.1,21.1,23.15,SSW,212,5.4,5.8,38,0.00,,---,0.00,VWS V14.00,2013-02-19 23:40:00,
2013-02-19 16:45:00,45.9,21.7,23.15,SW,220,5.4,8.7,38,0.00,,---,0.00,VWS V14.00,2013-02-19 23:45:00,
2013-02-19 16:50:00,46.2,22.0,23.15,South,183,5.4,8.7,38,0.00,,---,0.00,VWS V14.00,2013-02-19 23:50:00,
2013-02-19 16:55:00,46.4,21.6,23.15,South,190,2.7,2.7,37,0.00,,---,0.00,VWS V14.00,2013-02-19 23:55:00,
2013-02-19 17:00:00,46.4,21.6,23.15,SSW,208,5.4,5.4,37,0.00,,---,0.00,VWS V14.00,2013-02-20 00:00:00,
2013-02-19 17:05:00,46.4,21.6,23.15,SSE,157,6.3,8.1,37,0.00,,---,0.00,VWS V14.00,2013-02-20 00:05:00,
2013-02-19 17:10:00,45.9,21.7,23.15,WSW,246,2.7,6.3,38,0.00,,---,0.00,VWS V14.00,2013-02-20 00:10:00,
2013-02-19 17:15:00,45.0,20.9,23.15,South,185,7.6,7.6,38,0.00,,---,0.00,VWS V14.00,2013-02-20 00:15:00,
2013-02-19 17:20:00,43.5,19.6,23.15,SSW,210,4.0,5.8,38,0.00,,---,0.00,VWS V14.00,2013-02-20 00:20:00,
2013-02-19 17:25:00,41.9,18.8,23.15,SW,233,5.8,5.8,39,0.00,,---,0.00,VWS V14.00,2013-02-20 00:25:00,
2013-02-19 17:30:00,40.6,17.6,23.15,SW,224,3.6,5.4,39,0.00,,---,0.00,VWS V14.00,2013-02-20 00:30:00,
2013-02-19 17:35:00,39.6,16.7,23.15,SSW,201,4.9,6.3,39,0.00,,---,0.00,VWS V14.00,2013-02-20 00:35:00,
2013-02-19 17:40:00,38.7,15.9,23.15,SSW,192,0.0,3.1,39,0.00,,---,0.00,VWS V14.00,2013-02-20 00:40:00,
2013-02-19 17:45:00,38.1,15.4,23.12,South,176,4.0,4.0,39,0.00,,---,0.00,VWS V14.00,2013-02-20 00:45:00,
2013-02-19 17:50:00,37.6,14.9,23.12,WSW,252,0.0,2.2,39,0.00,,---,0.00,VWS V14.00,2013-02-20 00:50:00,
2013-02-19 17:55:00,37.0,15.0,23.12,SSE,159,3.1,4.0,40,0.00,,---,0.00,VWS V14.00,2013-02-20 00:55:00,
2013-02-19 18:00:00,36.7,14.6,23.12,South,187,4.0,6.3,40,0.00,,---,0.00,VWS V14.00,2013-02-20 01:00:00,
2013-02-19 18:05:00,36.5,14.5,23.12,SSW,199,3.1,6.3,40,0.00,,---,0.00,VWS V14.00,2013-02-20 01:05:00,
2013-02-19 18:11:00,36.3,14.3,23.12,SSW,213,5.4,5.8,40,0.00,,---,0.00,VWS V14.00,2013-02-20 01:11:00,
2013-02-19 18:16:00,36.1,14.2,23.12,South,189,10.5,10.5,40,0.00,,---,0.00,VWS V14.00,2013-02-20 01:16:00,
2013-02-19 18:21:00,36.0,14.0,23.12,SSW,199,2.7,5.4,40,0.00,,---,0.00,VWS V14.00,2013-02-20 01:21:00,
2013-02-19 18:26:00,35.8,13.8,23.12,South,171,3.6,5.8,40,0.00,,---,0.00,VWS V14.00,2013-02-20 01:26:00,
2013-02-19 18:31:00,35.6,13.7,23.12,WSW,242,2.7,4.0,40,0.00,,---,0.00,VWS V14.00,2013-02-20 01:31:00,
2013-02-19 18:36:00,35.4,13.5,23.12,SW,222,0.0,0.0,40,0.00,,---,0.00,VWS V14.00,2013-02-20 01:36:00,
2013-02-19 18:41:00,35.2,13.4,23.12,SW,219,3.6,3.6,40,0.00,,---,0.00,VWS V14.00,2013-02-20 01:41:00,
2013-02-19 18:46:00,34.9,13.0,23.12,West,268,3.6,5.8,40,0.00,,---,0.00,VWS V14.00,2013-02-20 01:46:00,
2013-02-19 18:51:00,34.9,13.0,23.12,South,181,4.0,4.0,40,0.00,,---,0.00,VWS V14.00,2013-02-20 01:51:00,
2013-02-19 18:56:00,34.5,12.7,23.12,SW,219,3.6,3.6,40,0.00,,---,0.00,VWS V14.00,2013-02-20 01:56:00,
2013-02-19 19:01:00,34.3,12.5,23.12,West,268,2.2,2.7,40,0.00,,---,0.00,VWS V14.00,2013-02-20 02:01:00,
2013-02-19 19:06:00,34.0,12.2,23.12,SW,225,2.7,4.0,40,0.00,,---,0.00,VWS V14.00,2013-02-20 02:06:00,
2013-02-19 19:11:00,33.8,12.1,23.12,SW,216,4.0,4.0,40,0.00,,---,0.00,VWS V14.00,2013-02-20 02:11:00,
2013-02-19 19:16:00,33.8,12.1,23.12,WSW,255,2.2,3.6,40,0.00,,---,0.00,VWS V14.00,2013-02-20 02:16:00,
2013-02-19 19:21:00,33.6,12.4,23.12,SW,217,4.0,4.0,41,0.00,,---,0.00,VWS V14.00,2013-02-20 02:21:00,
2013-02-19 19:26:00,33.6,12.4,23.12,SSW,207,2.7,4.9,41,0.00,,---,0.00,VWS V14.00,2013-02-20 02:26:00,
2013-02-19 19:31:00,33.6,12.4,23.12,WSW,243,2.7,5.8,41,0.00,,---,0.00,VWS V14.00,2013-02-20 02:31:00,
2013-02-19 19:36:00,33.4,12.3,23.12,SW,223,2.7,6.3,41,0.00,,---,0.00,VWS V14.00,2013-02-20 02:36:00,
2013-02-19 19:41:00,33.3,12.1,23.12,SSW,210,2.7,5.4,41,0.00,,---,0.00,VWS V14.00,2013-02-20 02:41:00,
2013-02-19 19:47:00,33.3,12.1,23.12,SSW,192,2.7,8.7,41,0.00,,---,0.00,VWS V14.00,2013-02-20 02:47:00,
2013-02-19 19:52:00,33.1,12.0,23.12,South,190,4.0,7.2,41,0.00,,---,0.00,VWS V14.00,2013-02-20 02:52:00,
2013-02-19 19:57:00,33.1,12.0,23.12,SW,218,3.6,4.9,41,0.00,,---,0.00,VWS V14.00,2013-02-20 02:57:00,
2013-02-19 20:02:00,33.1,12.0,23.12,SSW,212,3.1,6.3,41,0.00,,---,0.00,VWS V14.00,2013-02-20 03:02:00,
2013-02-19 20:07:00,33.1,12.0,23.12,South,190,3.6,4.0,41,0.00,,---,0.00,VWS V14.00,2013-02-20 03:07:00,
2013-02-19 20:12:00,33.1,12.0,23.12,SW,234,3.1,11.0,41,0.00,,---,0.00,VWS V14.00,2013-02-20 03:12:00,
2013-02-19 20:17:00,32.9,11.8,23.12,SW,227,3.1,6.3,41,0.00,,---,0.00,VWS V14.00,2013-02-20 03:17:00,
2013-02-19 20:22:00,32.7,11.6,23.12,SSW,209,4.9,10.5,41,0.00,,---,0.00,VWS V14.00,2013-02-20 03:22:00,
2013-02-19 20:27:00,32.7,11.6,23.12,SSW,200,3.6,3.6,41,0.00,,---,0.00,VWS V14.00,2013-02-20 03:27:00,
2013-02-19 20:32:00,32.7,11.6,23.12,South,177,2.2,2.2,41,0.00,,---,0.00,VWS V14.00,2013-02-20 03:32:00,
2013-02-19 20:37:00,32.5,11.5,23.12,SSW,205,4.0,4.0,41,0.00,,---,0.00,VWS V14.00,2013-02-20 03:37:00,
2013-02-19 20:42:00,32.4,11.3,23.09,South,178,2.7,3.1,41,0.00,,---,0.00,VWS V14.00,2013-02-20 03:42:00,
2013-02-19 20:47:00,32.2,11.1,23.09,SW,222,2.2,3.1,41,0.00,,---,0.00,VWS V14.00,2013-02-20 03:47:00,
2013-02-19 20:52:00,32.4,11.3,23.09,SSW,192,3.6,4.0,41,0.00,,---,0.00,VWS V14.00,2013-02-20 03:52:00,
2013-02-19 20:57:00,32.2,11.1,23.12,South,178,5.8,5.8,41,0.00,,---,0.00,VWS V14.00,2013-02-20 03:57:00,
2013-02-19 21:02:00,32.2,11.1,23.12,SSW,213,4.0,4.0,41,0.00,,---,0.00,VWS V14.00,2013-02-20 04:02:00,
2013-02-19 21:07:00,32.2,11.1,23.12,SSW,206,0.0,0.0,41,0.00,,---,0.00,VWS V14.00,2013-02-20 04:07:00,
2013-02-19 21:12:00,32.2,11.1,23.12,SSE,159,4.0,4.0,41,0.00,,---,0.00,VWS V14.00,2013-02-20 04:12:00,
2013-02-19 21:18:00,32.2,11.1,23.12,WSW,238,2.7,2.7,41,0.00,,---,0.00,VWS V14.00,2013-02-20 04:18:00,
2013-02-19 21:23:00,32.2,11.1,23.12,WSW,257,0.0,2.2,41,0.00,,---,0.00,VWS V14.00,2013-02-20 04:23:00,
2013-02-19 21:28:00,31.8,10.8,23.09,WSW,244,0.0,0.0,41,0.00,,---,0.00,VWS V14.00,2013-02-20 04:28:00,
2013-02-19 21:33:00,31.6,10.6,23.09,WNW,298,4.0,4.0,41,0.00,,---,0.00,VWS V14.00,2013-02-20 04:33:00,
2013-02-19 21:38:00,31.5,10.5,23.09,WSW,252,0.0,0.0,41,0.00,,---,0.00,VWS V14.00,2013-02-20 04:38:00,
2013-02-19 21:43:00,31.1,10.2,23.09,SW,229,2.7,3.1,41,0.00,,---,0.00,VWS V14.00,2013-02-20 04:43:00,
2013-02-19 21:48:00,31.1,10.2,23.09,WSW,238,0.0,0.0,41,0.00,,---,0.00,VWS V14.00,2013-02-20 04:48:00,
2013-02-19 21:53:00,30.9,10.0,23.09,SW,234,0.0,0.0,41,0.00,,---,0.00,VWS V14.00,2013-02-20 04:53:00,
2013-02-19 21:58:00,30.9,10.0,23.09,WSW,256,0.0,0.0,41,0.00,,---,0.00,VWS V14.00,2013-02-20 04:58:00,
2013-02-19 22:00:00,30.9,10.0,23.09,WSW,239,0.0,2.7,41,0.00,,---,0.00,VWS V14.00,2013-02-20 05:00:00,
2013-02-19 22:02:00,30.7,9.8,23.09,WSW,239,0.0,0.0,41,0.00,,---,0.00,VWS V14.00,2013-02-20 05:02:00,
2013-02-19 22:03:00,30.7,9.8,23.09,WSW,239,0.0,0.0,41,0.00,,---,0.00,VWS V14.00,2013-02-20 05:03:00,
2013-02-19 22:08:00,30.9,10.0,23.09,West,273,0.0,0.0,41,0.00,,---,0.00,VWS V14.00,2013-02-20 05:08:00,
2013-02-19 22:14:00,31.1,10.2,23.09,SW,214,3.1,3.6,41,0.00,,---,0.00,VWS V14.00,2013-02-20 05:14:00,
2013-02-19 22:19:00,31.5,10.5,23.09,SW,233,3.1,3.1,41,0.00,,---,0.00,VWS V14.00,2013-02-20 05:19:00,
2013-02-19 22:24:00,31.6,10.6,23.09,SW,227,0.0,0.0,41,0.00,,---,0.00,VWS V14.00,2013-02-20 05:24:00,
2013-02-19 22:29:00,31.5,10.5,23.09,SSW,193,0.0,0.0,41,0.00,,---,0.00,VWS V14.00,2013-02-20 05:29:00,
2013-02-19 22:34:00,31.5,10.5,23.09,SSE,160,3.1,4.9,41,0.00,,---,0.00,VWS V14.00,2013-02-20 05:34:00,
2013-02-19 22:39:00,31.5,10.5,23.09,SSW,195,5.4,6.3,41,0.00,,---,0.00,VWS V14.00,2013-02-20 05:39:00,
2013-02-19 22:44:00,31.6,10.6,23.09,SW,236,5.8,5.8,41,0.00,,---,0.00,VWS V14.00,2013-02-20 05:44:00,
2013-02-19 22:49:00,31.6,10.6,23.09,West,263,2.7,2.7,41,0.00,,---,0.00,VWS V14.00,2013-02-20 05:49:00,
2013-02-19 22:54:00,31.8,10.8,23.09,SSW,202,3.6,4.9,41,0.00,,---,0.00,VWS V14.00,2013-02-20 05:54:00,
2013-02-19 22:59:00,31.8,10.8,23.06,WSW,243,3.1,6.7,41,0.00,,---,0.00,VWS V14.00,2013-02-20 05:59:00,
2013-02-19 23:04:00,31.8,10.8,23.06,South,175,3.6,3.6,41,0.00,,---,0.00,VWS V14.00,2013-02-20 06:04:00,
2013-02-19 23:09:00,31.8,10.8,23.06,SW,217,5.4,5.4,41,0.00,,---,0.00,VWS V14.00,2013-02-20 06:09:00,
2013-02-19 23:14:00,31.6,10.6,23.06,SW,234,3.6,3.6,41,0.00,,---,0.00,VWS V14.00,2013-02-20 06:14:00,
2013-02-19 23:19:00,31.5,10.5,23.06,SW,217,0.0,2.2,41,0.00,,---,0.00,VWS V14.00,2013-02-20 06:19:00,
2013-02-19 23:24:00,31.3,10.3,23.06,WSW,243,0.0,0.0,41,0.00,,---,0.00,VWS V14.00,2013-02-20 06:24:00,
2013-02-19 23:29:00,30.9,10.0,23.06,SSW,198,2.7,2.7,41,0.00,,---,0.00,VWS V14.00,2013-02-20 06:29:00,
2013-02-19 23:34:00,30.7,9.8,23.06,SW,229,2.7,2.7,41,0.00,,---,0.00,VWS V14.00,2013-02-20 06:34:00,
2013-02-19 23:39:00,30.4,9.5,23.06,WSW,254,2.7,3.6,41,0.00,,---,0.00,VWS V14.00,2013-02-20 06:39:00,
2013-02-19 23:44:00,30.2,9.4,23.06,SSW,196,0.0,4.9,41,0.00,,---,0.00,VWS V14.00,2013-02-20 06:44:00,
2013-02-19 23:49:00,30.0,9.2,23.06,SSW,207,3.6,3.6,41,0.00,,---,0.00,VWS V14.00,2013-02-20 06:49:00,
2013-02-19 23:55:00,29.8,9.0,23.06,WNW,290,2.2,2.2,41,0.00,,---,0.00,VWS V14.00,2013-02-20 06:55:00,